Wetterdaten: aktuell Samstag, 20.01.2018 06:10
Datum Zeit Temp. A. Aussen2m Boden Feuchte A. Feuchte 2 Luftdruck Regen Wind Richtung Richtung Sonnenschein
20.01.2018 06:10 2,1 C 1,8 C 1,7 C 96 % 93 % 1004,9 hPa 0,0 l/m 13,3 km/h (3 Bft) W-SW 255 0 min
20.01.2018 06:05 2,1 C 1,8 C 1,7 C 96 % 93 % 1005,9 hPa 0,0 l/m 11,5 km/h (2 Bft) SW 215 0 min
20.01.2018 06:00 2,1 C 1,9 C 1,7 C 96 % 93 % 1005,9 hPa 0,0 l/m 14,5 km/h (3 Bft) SW 235 0 min
20.01.2018 05:55 2,1 C 1,9 C 1,7 C 96 % 93 % 1005,9 hPa 0,0 l/m 16,3 km/h (3 Bft) SW 215 0 min
20.01.2018 05:50 2,0 C 1,9 C 1,7 C 96 % 93 % 1005,9 hPa 0,0 l/m 10,3 km/h (2 Bft) SW 220 0 min
20.01.2018 05:45 2,2 C 1,9 C 1,7 C 96 % 93 % 1005,9 hPa 0,3 l/m 15,1 km/h (3 Bft) SW 220 0 min
20.01.2018 05:40 2,1 C 1,9 C 1,7 C 96 % 93 % 1005,9 hPa 0,0 l/m 19,4 km/h (3 Bft) SW 225 0 min
20.01.2018 05:35 2,1 C 1,9 C 1,7 C 96 % 93 % 1005,9 hPa 0,0 l/m 14,5 km/h (3 Bft) SW 215 0 min
20.01.2018 05:30 2,1 C 1,9 C 1,7 C 97 % 94 % 1005,9 hPa 0,0 l/m 17,6 km/h (3 Bft) S-SW 205 0 min
20.01.2018 05:25 2,0 C 1,8 C 1,7 C 97 % 93 % 1005,9 hPa 0,0 l/m 12,1 km/h (2 Bft) SW 235 0 min
20.01.2018 05:20 2,0 C 1,8 C 1,7 C 97 % 93 % 1005,9 hPa 0,0 l/m 7,3 km/h (2 Bft) S-SW 200 0 min
20.01.2018 05:15 2,0 C 1,8 C 1,7 C 97 % 93 % 1005,9 hPa 0,0 l/m 4,2 km/h (1 Bft) S-SW 200 0 min
20.01.2018 05:10 2,0 C 1,8 C 1,7 C 97 % 93 % 1005,9 hPa 0,0 l/m 7,3 km/h (2 Bft) S 190 0 min
20.01.2018 05:05 2,0 C 1,8 C 1,7 C 97 % 93 % 1005,9 hPa 0,0 l/m 9,7 km/h (2 Bft) SW 230 0 min
20.01.2018 05:00 2,0 C 1,8 C 1,7 C 97 % 93 % 1005,9 hPa 0,0 l/m 10,9 km/h (2 Bft) S-SW 210 0 min
20.01.2018 04:55 1,9 C 1,8 C 1,7 C 97 % 93 % 1005,9 hPa 0,0 l/m 10,3 km/h (2 Bft) W-SW 255 0 min
20.01.2018 04:50 2,1 C 1,9 C 1,7 C 97 % 93 % 1005,9 hPa 0,0 l/m 12,7 km/h (3 Bft) S 185 0 min
20.01.2018 04:45 2,0 C 1,8 C 1,7 C 97 % 93 % 1005,9 hPa 0,0 l/m 8,5 km/h (2 Bft) S-SW 210 0 min
20.01.2018 04:40 2,0 C 1,9 C 1,7 C 96 % 93 % 1005,9 hPa 0,0 l/m 7,3 km/h (2 Bft) S-SO 150 0 min
20.01.2018 04:35 2,0 C 1,9 C 1,7 C 96 % 93 % 1006,9 hPa 0,0 l/m 9,7 km/h (2 Bft) SW 225 0 min
20.01.2018 04:30 2,1 C 1,9 C 1,7 C 97 % 93 % 1006,9 hPa 0,0 l/m 12,1 km/h (2 Bft) S 190 0 min
20.01.2018 04:25 2,0 C 1,9 C 1,7 C 96 % 93 % 1006,9 hPa 0,0 l/m 6,1 km/h (2 Bft) SW 220 0 min
20.01.2018 04:20 2,1 C 1,9 C 1,7 C 96 % 93 % 1006,9 hPa 0,0 l/m 6,7 km/h (2 Bft) S-SW 210 0 min
20.01.2018 04:15 2,1 C 1,9 C 1,7 C 96 % 94 % 1006,9 hPa 0,0 l/m 12,7 km/h (3 Bft) SW 215 0 min
20.01.2018 04:10 2,1 C 1,8 C 1,7 C 96 % 94 % 1006,9 hPa 0,0 l/m 11,5 km/h (2 Bft) SW 215 0 min
20.01.2018 04:05 2,0 C 1,9 C 1,7 C 96 % 94 % 1006,9 hPa 0,0 l/m 6,7 km/h (2 Bft) SW 225 0 min
20.01.2018 04:00 2,2 C 1,9 C 1,7 C 96 % 94 % 1006,9 hPa 0,3 l/m 15,7 km/h (3 Bft) SW 230 0 min
20.01.2018 03:55 2,2 C 1,8 C 1,7 C 97 % 95 % 1006,9 hPa 0,0 l/m 18,2 km/h (3 Bft) S-SW 210 0 min
20.01.2018 03:50 2,1 C 1,8 C 1,7 C 97 % 95 % 1007,9 hPa 0,0 l/m 12,7 km/h (3 Bft) S 190 0 min
20.01.2018 03:45 2,0 C 1,8 C 1,7 C 97 % 95 % 1007,9 hPa 0,0 l/m 13,3 km/h (3 Bft) S-SW 210 0 min
20.01.2018 03:40 1,9 C 1,7 C 1,7 C 98 % 95 % 1007,9 hPa 0,0 l/m 7,9 km/h (2 Bft) S-SW 205 0 min
20.01.2018 03:35 1,9 C 1,6 C 1,7 C 98 % 95 % 1006,9 hPa 0,3 l/m 12,1 km/h (2 Bft) W-SW 245 0 min
20.01.2018 03:30 1,7 C 1,5 C 1,7 C 98 % 95 % 1006,9 hPa 0,0 l/m 13,3 km/h (3 Bft) SW 215 0 min
20.01.2018 03:25 1,7 C 1,4 C 1,7 C 99 % 95 % 1006,9 hPa 0,0 l/m 14,5 km/h (3 Bft) S 180 0 min
20.01.2018 03:20 1,5 C 1,3 C 1,7 C 99 % 95 % 1006,9 hPa 0,0 l/m 10,3 km/h (2 Bft) S-SO 150 0 min
20.01.2018 03:15 1,4 C 1,3 C 1,7 C 99 % 95 % 1006,9 hPa 0,3 l/m 5,4 km/h (2 Bft) S-SW 205 0 min
20.01.2018 03:10 1,3 C 1,2 C 1,7 C 99 % 95 % 1006,9 hPa 0,0 l/m 9,1 km/h (2 Bft) S-SW 210 0 min
20.01.2018 03:05 1,3 C 1,1 C 1,7 C 99 % 94 % 1007,9 hPa 0,0 l/m 8,5 km/h (2 Bft) S-SW 205 0 min
20.01.2018 03:00 1,2 C 1,1 C 1,7 C 99 % 94 % 1007,9 hPa 0,0 l/m 5,4 km/h (2 Bft) S 180 0 min
20.01.2018 02:55 1,1 C 1,0 C 1,7 C 99 % 94 % 1007,9 hPa 0,0 l/m 5,4 km/h (2 Bft) S 185 0 min
20.01.2018 02:50 1,0 C 0,9 C 1,7 C 99 % 94 % 1005,9 hPa 0,3 l/m 4,8 km/h (1 Bft) S-SO 165 0 min
20.01.2018 02:45 1,0 C 0,9 C 1,7 C 99 % 94 % 1005,9 hPa 0,0 l/m 6,1 km/h (2 Bft) SW 230 0 min
20.01.2018 02:40 0,9 C 0,8 C 1,7 C 99 % 94 % 1005,9 hPa 0,0 l/m 4,8 km/h (1 Bft) S 175 0 min
20.01.2018 02:35 0,8 C 0,7 C 1,7 C 99 % 94 % 1006,9 hPa 0,0 l/m 7,3 km/h (2 Bft) SW 215 0 min
20.01.2018 02:30 0,6 C 0,7 C 1,7 C 99 % 94 % 1006,9 hPa 0,3 l/m 4,2 km/h (1 Bft) SW 235 0 min
20.01.2018 02:25 0,6 C 0,7 C 1,7 C 99 % 94 % 1006,9 hPa 0,0 l/m 3,0 km/h (1 Bft) SW 225 0 min
20.01.2018 02:20 0,6 C 0,7 C 1,7 C 99 % 94 % 1006,9 hPa 0,0 l/m 3,6 km/h (1 Bft) SW 220 0 min
20.01.2018 02:15 0,6 C 0,6 C 1,7 C 99 % 94 % 1006,9 hPa 0,3 l/m 6,1 km/h (2 Bft) W 275 0 min
20.01.2018 02:10 0,5 C 0,6 C 1,7 C 99 % 94 % 1006,9 hPa 0,0 l/m 4,8 km/h (1 Bft) W-SW 240 0 min
20.01.2018 02:05 0,5 C 0,7 C 1,7 C 99 % 94 % 1006,9 hPa 0,3 l/m 5,4 km/h (2 Bft) NW 320 0 min
20.01.2018 02:00 0,5 C 0,7 C 1,7 C 99 % 94 % 1006,9 hPa 0,3 l/m 9,7 km/h (2 Bft) S-SW 200 0 min
20.01.2018 01:55 0,5 C 0,8 C 1,7 C 99 % 93 % 1006,9 hPa 0,0 l/m 17,6 km/h (3 Bft) NW 310 0 min
20.01.2018 01:50 0,6 C 0,9 C 1,7 C 98 % 93 % 1006,9 hPa 0,3 l/m 23,6 km/h (4 Bft) W-NW 295 0 min
20.01.2018 01:45 0,7 C 1,1 C 1,7 C 98 % 92 % 1006,9 hPa 0,0 l/m 19,4 km/h (3 Bft) W-SW 250 0 min
20.01.2018 01:40 0,9 C 1,4 C 1,7 C 97 % 91 % 1006,9 hPa 0,3 l/m 18,2 km/h (3 Bft) W-NW 295 0 min
20.01.2018 01:35 1,3 C 1,7 C 1,7 C 96 % 91 % 1006,9 hPa 0,3 l/m 17,6 km/h (3 Bft) W-NW 295 0 min
20.01.2018 01:30 1,6 C 1,9 C 1,7 C 95 % 91 % 1006,9 hPa 0,3 l/m 25,4 km/h (4 Bft) W-NW 295 0 min
20.01.2018 01:25 1,9 C 2,2 C 1,7 C 94 % 90 % 1006,9 hPa 0,3 l/m 23,6 km/h (4 Bft) NW 310 0 min
20.01.2018 01:20 2,2 C 2,4 C 1,7 C 94 % 90 % 1007,9 hPa 0,3 l/m 23,0 km/h (4 Bft) W-NW 295 0 min
20.01.2018 01:15 2,8 C 2,7 C 1,7 C 91 % 90 % 1007,9 hPa 0,0 l/m 12,7 km/h (3 Bft) SW 225 0 min
20.01.2018 01:10 2,8 C 2,7 C 1,7 C 91 % 89 % 1007,9 hPa 0,0 l/m 12,7 km/h (3 Bft) SW 225 0 min
20.01.2018 01:05 2,9 C 2,7 C 1,7 C 91 % 89 % 1006,9 hPa 0,0 l/m 20,0 km/h (4 Bft) W-SW 240 0 min
20.01.2018 01:00 2,8 C 2,7 C 1,7 C 91 % 89 % 1006,9 hPa 0,0 l/m 15,7 km/h (3 Bft) W-SW 240 0 min
20.01.2018 00:55 2,7 C 2,7 C 1,7 C 91 % 89 % 1006,9 hPa 0,0 l/m 12,1 km/h (2 Bft) W-SW 245 0 min
20.01.2018 00:50 2,7 C 2,6 C 1,7 C 91 % 89 % 1007,9 hPa 0,0 l/m 12,1 km/h (2 Bft) W-SW 245 0 min
20.01.2018 00:45 2,7 C 2,6 C 1,7 C 91 % 89 % 1007,9 hPa 0,0 l/m 14,5 km/h (3 Bft) SW 230 0 min
20.01.2018 00:40 2,7 C 2,5 C 1,7 C 91 % 89 % 1007,9 hPa 0,0 l/m 15,1 km/h (3 Bft) W-SW 255 0 min
20.01.2018 00:35 2,7 C 2,5 C 1,7 C 91 % 89 % 1007,9 hPa 0,0 l/m 15,1 km/h (3 Bft) W-SW 255 0 min
20.01.2018 00:30 2,6 C 2,5 C 1,5 C 91 % 89 % 1007,9 hPa 0,0 l/m 15,7 km/h (3 Bft) SW 235 0 min
20.01.2018 00:25 2,6 C 2,4 C 1,5 C 91 % 90 % 1007,9 hPa 0,0 l/m 15,7 km/h (3 Bft) SW 235 0 min
20.01.2018 00:20 2,5 C 2,4 C 1,5 C 91 % 90 % 1006,9 hPa 0,0 l/m 9,7 km/h (2 Bft) S-SW 210 0 min
20.01.2018 00:15 2,7 C 2,4 C 1,5 C 91 % 90 % 1006,9 hPa 0,0 l/m 19,4 km/h (3 Bft) SW 230 0 min
20.01.2018 00:10 2,7 C 2,4 C 1,5 C 91 % 90 % 1006,9 hPa 0,0 l/m 16,9 km/h (3 Bft) SW 220 0 min
20.01.2018 00:05 2,5 C 2,3 C 1,5 C 92 % 89 % 1007,9 hPa 0,0 l/m 14,5 km/h (3 Bft) SW 220 0 min
20.01.2018 00:00 2,5 C 2,3 C 1,5 C 91 % 89 % 1007,9 hPa 0,0 l/m 12,7 km/h (3 Bft) SW 235 0 min
_ Min-Zeit 01:55 02:10 00:00 00:00 00:00 06:10 - 02:25 - - -
Minimum _ 0,5 C 0,6 C 1,5 C 91 % 89 % 1004,9 hPa - 3,0 km/h (1 Bft) - - -
_ Max-Zeit 01:05 00:55 00:35 01:55 03:10 02:55 01:20 01:30 - - 00:00
Maximum _ 2,9 C 2,7 C 1,7 C 99 % 95 % 1007,9 hPa 0,3 l/m 25,4 km/h
W-NW (4 Bft)
- - 0 min
Durchschnitt _ 1,8 C 1,7 C 1,7 C 96 % 93 % 1006,8 hPa #4,4 l/m 12,0 km/h (2 Bft) SW - #0 min.